Regional Weather Roundup
Issued by NWS

Home | Current Version | Previous Version | Text Only | Print | Product List | Glossary Off
Versions: 1 2 3 4 5 6 7 8 9 10 11 12 13 14 15 16 17 18 19 20 21 22 23 24 25 26 27

000
ASUS45 KTFX 181210
RWRMT
MONTANA REGIONAL WEATHER ROUNDUP
NATIONAL WEATHER SERVICE GREAT FALLS MT
500 AM MST SUN FEB 18 2018

NOTE: "FAIR" INDICATES FEW OR NO CLOUDS BELOW 12000 FEET WITH NO
SIGNIFICANT WEATHER AND/OR OBSTRUCTIONS TO VISIBILITY.

MTZ001>007-043-181300-
WEST OF THE DIVIDE

CITY           SKY/WX    TMP DP  RH WIND       PRES   REMARKS
KALISPELL      CLOUDY    13   6  74 NE26G39   29.66R BLWGSNOWWCI  -7
MISSOULA       MOCLDY    24  18  77 N16G23    29.50S WCI  11
BUTTE          LGT SNOW  25  21  85 NW6       29.45R VSB 1   WCI  18
MULLAN PASS    LGT SNOW  20  19  96 SW8G17    29.36F FOG     WCI  10
ANACONDA         N/A     12   7  79 NE9       29.51R WCI   0
DEER LODGE       N/A      9   3  78 MISG      29.55R
HAMILTON         N/A     32  25  74 MISG      29.49R
PLAINS           N/A     21  11  65 N7        29.64R VSB 0   WCI  12
RONAN          FOG       18  14  86 N18       29.61R VSB 1   WCI   2
THOMPSON FALLS   N/A     24  20  85 W12       29.63R VSB 0   WCI  13
$$

MTZ008-052>055-181300-
SOUTHWEST MONTANA

CITY           SKY/WX    TMP DP  RH WIND       PRES   REMARKS
BOZEMAN        LGT SNOW  13   7  77 W8        29.56R WCI   2
DILLON         MOCLDY    20  52 100 S8        29.42S WCI  10
ENNIS          LGT SNOW  16  14  93 N13       29.51R WCI   2
W YELLOWSTONE    N/A    N/A N/A N/A MISG        N/A
THREE FORKS      N/A     10   3  73 N14       29.63R WCI  -6
TWIN BRIDGES     N/A     16   7  67 N23       29.50F WCI  -2
$$

MTZ009-010-012-014-046-048-049-054-181300-
EAST SLOPES AND CENTRAL MONTANA

CITY           SKY/WX    TMP DP  RH WIND       PRES   REMARKS
CUT BANK       LGT SNOW   2  -2  83 N14       29.81R FOG     WCI -16
GREAT FALLS    FLURRIES   2  -2  83 N7        29.81R WCI -11
MALMSTROM AFB  FLURRIES   5   2  89 N7        29.83R WCI  -7
HELENA         CLOUDY     7   1  76 NW12      29.73R WCI  -8
CONRAD           N/A      3  -2  80 W10       29.86  WCI -12
WHITE SULPHUR    N/A      1  -4  78 NW24      29.62R HAZE    WCI -22
$$

MTZ011-013-016-021-045-047-050-051-181300-
NORTH CENTRAL MONTANA

CITY           SKY/WX    TMP DP  RH WIND       PRES   REMARKS
HAVRE          CLOUDY     6   2  83 NE9       29.88R WCI  -8
LEWISTOWN      LGT SNOW   4   2  91 NW6       29.70R FOG     WCI  -7
N BAR RANCH    CLOUDY     7   0  72 NW18G28   29.64R HAZE    WCI -12
CHINOOK          N/A      7   1  78 N3        29.90R
$$

MTZ017>020-022>027-061-062-181300-
NORTHEAST MONTANA

CITY           SKY/WX    TMP DP  RH WIND       PRES   REMARKS
GLASGOW        LGT SNOW   9   4  80 N18       29.82R WCI -10
GLENDIVE       LGT SNOW  10   6  84 NE22      29.65R FOG     WCI -10
JORDAN           N/A      9   4  80 N23       29.70R WCI -11
MALTA          CLOUDY     7   3  85 N13       29.86R WCI  -9
SIDNEY         LGT SNOW   9   7  92 NE15      29.74R FOG     WCI  -8
WOLF POINT     LGT SNOW  11   5  77 NE15      29.81R WCI  -5
PLENTYWOOD       N/A      7   1  78 N3        29.79R
POPLAR           N/A      9   3  78 N14       29.80R WCI  -8
SCOBEY           N/A      6  -2  70 W12       29.79R WCI  -9
$$

MTZ028>42-056>058-181300-
SOUTHCENTRAL AND SOUTHEAST MONTANA

CITY           SKY/WX    TMP DP  RH WIND       PRES   REMARKS
BAKER          CLOUDY    15  13  91 E17       29.52R WCI  -1
BILLINGS       FLURRIES  11   7  84 NE21G29   29.64R WCI  -8
LIVINGSTON     LGT SNOW   8   5  87 NW17G25   29.56R FOG     WCI -10
MILES CITY     CLOUDY    16  12  84 N15       29.61R WCI   1
BIG TIMBER     CLOUDY    12  10  92 E13       29.60R FOG     WCI  -3
EKALAKA          N/A     27  22  81 W18       29.47R WCI  14
FORSYTH          N/A     12   9  85 MISG      29.66R
LAUREL           N/A     12   7  79 NE21      29.68R WCI  -6
$$

REGIONAL REPORTS...DAKOTAS

CITY           SKY/WX    TMP DP  RH WIND       PRES   REMARKS
WILLISTON      LGT SNOW  10   6  84 NE12      29.78R FOG     WCI  -5
MINOT          LGT SNOW   7   3  84 NE9       29.79R FOG     WCI  -7
DICKINSON      LGT SNOW  10   6  84 NE20      29.55R VSB 1   WCI  -9
BEACH          LGT SNOW  12   9  85 NE17      29.61R WCI  -5
CROSBY         LGT SNOW   7   3  85 NE6       29.82R WCI  -3
TIOGA          LGT SNOW   5   5 100 E15       29.76R WCI -13
BISMARCK       CLOUDY    15   9  76 NE15G26   29.67R WCI   0
GRAND FORKS    CLOUDY    13   5  70 E10       29.88F WCI   0
FARGO          CLOUDY    17  14  88 E10       29.82F WCI   5
BUFFALO SD       N/A     15  11  83 NE8       29.41R WCI   4
RAPID CITY     FAIR      19  16  88 N25G32    29.43R WCI   1
$$

REGIONAL REPORTS...WYOMING/IDAHO/WASHINGTON

CITY           SKY/WX    TMP DP  RH WIND       PRES   REMARKS
GILLETTE       CLOUDY    29  26  89 N6        29.48R WCI  23
SHERIDAN       SNOW      27  26  96 NW33G41   29.53R VSB 1/2 WCI  10
BUFFALO WY     LGT SNOW  28  25  88 NW3       29.47R FOG
CODY           LGT SNOW  21  18  88 N21G30    29.48R VSB 1   WCI   5
YELLOWSTONE LA   N/A     24  22  91 VRB7      29.42F WCI  16
IDAHO FALLS    CLOUDY    35  32  88 SW20G30   29.51R WCI  24
SALMON         LGT SNOW  30  30 100 SE3       29.46F FOG
BOISE          CLOUDY    40  28  62 SW3       29.62S
SPOKANE        CLOUDY    31  29  92 SW15      29.48R WCI  20
$$

REGIONAL REPORTS...ALBERTA

CITY           SKY/WX    TMP DP  RH WIND       PRES   REMARKS
CALGARY        LGT SNOW   1  -6  71 N16G22    29.90R WCI -18
CARDSTON         N/A      3   0  85 NW5         N/A
EDMONTON       MOCLDY    -2 -11  65 W12       29.99S WCI -20
FORT MCMURRAY  LGT SNOW   0  -6  78 W5        30.00R
HIGH LEVEL     CLOUDY     1  -2  85 N3        30.17R
LETHBRIDGE     LGT SNOW   7   3  85 NW7       29.91R WCI  -5
LLOYDMINSTER   CLOUDY     1  -4  78 W7        29.91S WCI -11
MEDICINE HAT   FLURRIES   5   1  85 N7        29.95R WCI  -7
MILK RIVER       N/A      3   0  85 N8          N/A  WCI -10
ONEFOUR          N/A      3   1  92 NW15        N/A  WCI -15
PEACE RIVER    PTCLDY     5  -6  61 NW9       30.10R WCI  -9
PINCHER CREEK  FLURRIES   3   0  85 SW2       29.83R
WATERTON GATE    N/A      1  -2  85 NE2         N/A
$$

REGIONAL REPORTS...SASKATCHEWAN

CITY           SKY/WX    TMP DP  RH WIND       PRES   REMARKS
CORONACH         N/A      5   1  85 N10         N/A  WCI -10
CYPRESS HILLS    N/A     -2  -8  78 N13G22      N/A  WCI -21
ESTEVAN        FLURRIES   5   0  78 NE5       29.82R
MOOSE JAW        N/A      5   0  78 NW6         N/A  WCI  -6
PRINCE ALBERT  FLURRIES  -8 -13  77 W5        29.98R
REGINA         MOCLDY     1  -4  78 NW7       29.89R WCI -11
ROCKGLEN         N/A      1  -2  85 N10         N/A  WCI -14
SASKATOON      CLOUDY     1  -6  71 NE9       29.96R WCI -14
SWIFT CURRENT  CLOUDY     1  -4  78 N8        29.83R WCI -12
VAL MARIE        N/A      1  -2  85 N10         N/A  WCI -14
$$




USA.gov is the U.S. government's official web portal to all federal, state and local government web resources and services.